Location: Newark
(47.5833°N, 8.1500°E)
Time: 16:08:13
(UTC+00:00)

Vanguard 1 Rocket - All Passes

Search period start: 21 October 2020 00:00
Search period end: 31 October 2020 00:00
Orbit: 656 x 4221 km, 34.3° (Epoch: 20 October)

Date Brightness Start Highest point End Pass type
(mag) Time Alt. Az. Time Alt. Az. Time Alt. Az.
21 Oct - 13:14:26 10° SW 13:18:38 24° S 13:24:36 10° ESE daylight
21 Oct - 15:37:42 10° WSW 15:43:19 25° S 15:52:07 10° SE daylight
21 Oct - 18:04:24 10° SW 18:09:20 14° SSW 18:15:39 10° S visible
22 Oct - 12:04:56 10° SSW 12:08:10 18° SSE 12:12:08 10° ESE daylight
22 Oct - 14:27:31 10° WSW 14:32:18 25° S 14:39:31 10° SE daylight
22 Oct - 16:52:19 10° WSW 16:57:39 17° SSW 17:05:07 10° SSE visible
23 Oct - 10:56:12 10° S 10:57:48 12° SSE 10:59:27 10° SE daylight
23 Oct - 13:17:33 10° SW 13:21:33 23° S 13:27:08 10° SE daylight
23 Oct - 15:41:21 10° WSW 15:46:17 20° SSW 15:53:28 10° SSE daylight
24 Oct - 12:07:46 10° SW 12:11:03 19° SSE 12:15:02 10° SE daylight
24 Oct - 14:30:55 10° SW 14:35:16 21° S 14:41:28 10° SE daylight
24 Oct - 16:57:24 10° SW 17:00:37 12° SSW 17:04:27 10° S visible
25 Oct - 10:58:19 10° SSW 11:00:36 14° SSE 11:03:04 10° SE daylight
25 Oct - 13:20:46 10° SW 13:24:31 21° S 13:29:31 10° SE daylight
25 Oct - 15:45:27 10° SW 15:49:17 15° SSW 15:54:17 10° SSE daylight
26 Oct - 12:10:45 10° SW 12:13:57 19° S 12:17:48 10° SE daylight
26 Oct - 14:34:35 10° SW 14:38:16 17° S 14:43:06 10° SSE daylight
27 Oct - 11:00:51 10° SSW 11:03:30 15° S 11:06:18 10° SE daylight
27 Oct - 13:24:09 10° SW 13:27:29 18° S 13:31:43 10° SE daylight
28 Oct - 09:51:12 10° S 09:53:01 12° SSE 09:54:46 10° SE daylight
28 Oct - 12:13:51 10° SW 12:16:54 18° S 12:20:25 10° SE daylight
28 Oct - 14:38:51 10° SW 14:41:15 12° SSW 14:44:04 10° S daylight
29 Oct - 11:03:35 10° SW 11:06:25 16° S 11:09:21 10° SE daylight
29 Oct - 13:27:49 10° SW 13:30:28 14° S 13:33:35 10° SSE daylight
30 Oct - 09:53:16 10° SSW 09:55:55 15° S 09:58:25 10° SE daylight
30 Oct - 12:17:09 10° SW 12:19:51 16° S 12:22:52 10° SSE daylight
